Theta_e
347 348 348 348 348 348 349 348 347 347 348 347 348 348 349 348 348 349 349 349 349 348 347 347 347 347 347 348 351 349 348 349 349 348 348 345 343 343 343 346 348 351 343
347 350 349 349 349 349 349 349 347 347 349 349 348 348 350 349 348 348 350 350 350 350 348 347 349 347 347 348 348 349 347 348 349 348 347 346 344 346 348 349 348 348 338
345 348 349 349 349 348 347 347 344 345 346 347 349 347 348 349 348 347 349 351 349 349 349 349 350 349 349 347 346 346 346 348 349 349 349 349 349 349 348 345 341 338 340
340 340 341 343 344 345 346 346 347 348 348 347 348 350 350 349 348 348 348 349 350 351 350 349 349 348 350 350 350 350 349 349 349 350 350 350 351 351 350 349 349 350 349
340 341 338 340 344 341 341 344 345 345 348 348 347 349 351 351 349 346 347 350 350 350 351 351 352 351 351 349 350 349 351 351 352 352 351 351 351 350 351 350 350 351 352
342 340 341 342 340 341 340 337 340 342 344 347 348 350 351 352 352 352 349 349 349 347 350 352 351 352 352 351 351 351 351 350 351 351 352 351 351 352 352 351 350 348 350
335 337 340 342 344 344 343 341 339 340 344 345 347 349 349 351 351 351 351 353 353 352 353 352 351 353 353 352 352 351 351 353 352 352 352 352 353 353 351 352 352 351 349
327 329 331 332 330 332 335 335 340 342 342 343 343 345 346 347 349 350 351 352 353 353 353 353 352 351 351 351 351 351 349 349 352 353 353 352 353 353 353 352 352 351 351
321 323 325 325 325 325 324 323 326 328 333 334 337 342 344 344 344 345 346 348 349 351 351 352 351 352 352 351 351 352 351 350 348 348 351 353 352 349 349 351 352 350 352
318 319 322 323 323 325 324 323 324 331 337 340 335 335 330 330 330 339 343 346 346 346 347 348 349 349 349 350 350 350 350 351 351 351 350 349 349 349 349 349 349 351 351
316 318 319 320 320 321 323 323 322 323 321 320 319 320 319 319 318 319 325 330 326 326 327 333 339 340 342 344 344 346 347 348 348 348 348 350 352 352 352 352 351 351 351
314 315 316 316 316 317 318 319 319 319 319 319 319 319 319 319 319 319 319 320 321 322 323 325 327 326 326 327 331 330 332 338 341 345 346 346 346 346 344 344 345 348 348
309 310 311 313 313 314 315 316 316 316 315 315 315 315 315 316 317 318 318 318 319 319 319 320 322 326 327 326 326 325 326 326 329 332 333 333 334 339 343 347 348 349 349
306 306 306 306 306 307 309 310 310 309 310 311 312 311 311 312 312 313 315 317 318 318 319 319 319 320 320 323 326 327 331 333 335 338 341 342 342 343 345 346 347 348 349
304 303 302 302 302 302 303 304 304 304 307 307 305 305 307 306 305 306 308 311 314 316 317 318 318 319 319 320 321 328 331 335 337 335 335 337 339 341 342 345 346 347 346
301 300 300 300 300 300 300 300 300 300 302 301 300 302 305 302 300 300 302 305 309 312 315 316 318 319 320 321 322 329 331 329 329 326 325 324 324 330 335 338 343 343 343
300 300 299 298 297 297 297 297 297 297 297 296 297 298 298 297 297 298 299 300 305 308 312 314 317 318 320 322 326 326 324 322 316 316 314 316 321 322 322 328 333 338 341
299 299 297 296 295 295 295 295 295 295 295 295 295 295 295 295 295 295 296 298 300 303 309 312 314 315 317 318 319 320 319 316 315 314 314 316 317 318 319 320 322 327 332
298 297 296 295 295 295 294 294 294 294 294 294 294 294 293 293 294 294 295 297 298 299 300 303 306 312 313 313 313 313 312 311 310 310 311 313 315 315 316 317 319 319 319
298 296 295 295 295 295 294 293 293 293 293 293 293 292 292 292 292 293 294 295 295 296 297 298 299 299 301 306 310 310 309 309 308 308 309 309 310 311 312 313 316 316 317
297 296 296 296 295 294 293 292 292 292 292 291 291 291 290 291 291 291 292 292 292 293 294 295 296 297 299 300 304 306 307 307 307 307 307 307 306 308 310 310 311 312 313
296 296 296 296 295 294 293 292 292 291 291 291 290 290 290 290 290 290 290 290 290 290 291 292 293 295 296 296 297 301 303 303 303 303 303 304 304 304 305 307 309 310 310
296 296 296 296 295 295 293 292 291 291 290 290 290 291 290 290 290 289 289 289 289 289 290 290 291 293 294 295 297 299 300 300 299 299 299 300 301 302 302 303 305 307 308
297 297 297 296 296 295 294 292 292 291 291 290 290 291 291 290 290 289 289 289 289 289 289 289 290 290 291 293 294 294 295 296 296 297 297 297 298 298 298 299 301 302 304
297 297 297 297 296 296 295 293 292 292 291 291 291 291 291 291 290 289 288 289 288 288 288 289 290 290 291 291 291 292 293 293 293 293 293 294 295 295 295 296 297 298 299
298 298 298 298 297 296 295 294 294 293 293 293 293 293 292 291 291 290 289 288 288 288 288 289 289 289 289 289 290 290 291 291 292 293 293 292 292 292 293 294 295 297 299
Wind_Speed
17 16 14 14 13 9 7 6 4 7 7 10 11 11 14 13 11 12 12 11 10 10 10 9 9 9 8 7 6 5 4 4 3 5 9 12 15 16 16 11 12 15 16
15 13 12 12 13 10 10 9 6 6 7 7 9 11 14 15 14 15 13 12 11 11 10 10 11 10 10 11 11 9 9 8 8 9 11 12 15 16 16 13 16 16 17
8 9 8 7 7 10 8 9 9 9 11 11 10 10 11 12 14 15 14 13 12 11 10 12 11 10 12 12 14 14 12 9 8 8 9 13 16 17 18 17 18 18 18
9 4 5 6 9 7 4 4 4 5 7 9 10 10 12 11 12 15 15 15 14 15 13 13 12 12 13 12 11 12 12 11 11 11 14 16 18 20 19 19 22 23 22
10 3 2 1 7 3 2 3 2 1 3 6 10 12 11 14 16 15 17 17 18 17 17 17 17 16 16 16 17 17 14 15 15 16 16 16 19 20 20 18 22 24 24
12 6 3 4 3 4 2 1 2 2 1 2 4 9 14 15 15 16 17 20 19 21 20 18 18 18 18 19 19 19 21 20 20 18 18 17 20 20 21 21 20 16 8
16 10 3 1 6 2 2 3 1 2 1 1 3 6 8 11 15 16 16 18 20 21 21 21 22 21 20 20 20 20 21 21 20 21 23 24 21 22 21 23 23 22 18
23 20 16 15 15 14 12 7 9 2 1 3 4 5 7 6 6 6 13 15 18 20 21 22 23 24 23 22 21 22 23 24 25 25 26 25 25 24 24 23 24 24 25
21 18 16 13 12 13 13 14 15 8 4 4 4 8 10 8 7 6 8 7 10 13 17 19 21 24 26 26 26 28 30 29 26 25 26 26 26 25 23 22 21 16 17
16 16 14 13 14 14 13 13 11 12 13 15 17 22 16 13 16 11 11 9 7 8 11 12 12 13 16 19 22 23 24 29 29 28 27 26 25 26 24 24 24 18 18
11 11 12 12 14 13 11 11 11 11 13 15 17 17 13 14 13 13 15 10 13 13 14 12 11 13 14 14 13 13 18 22 22 22 23 23 22 23 25 27 27 27 21
10 10 9 10 11 11 10 12 12 11 12 13 14 15 14 14 13 14 13 12 10 10 11 12 12 12 14 15 14 14 13 12 15 17 19 19 21 22 25 24 24 25 28
12 13 11 10 9 10 10 11 12 12 14 15 16 16 15 15 15 12 13 15 15 17 15 14 14 13 12 12 12 13 14 14 13 15 18 19 20 22 21 21 20 21 25
13 14 13 13 12 11 9 10 11 13 14 14 13 14 15 17 19 21 20 19 18 17 16 16 14 14 14 15 15 14 12 12 13 14 16 18 18 17 16 16 17 16 19
15 13 13 14 14 13 13 12 12 13 12 12 13 13 14 13 18 19 21 22 21 21 22 19 19 19 20 19 18 16 14 12 11 13 16 17 17 17 18 17 17 18 18
14 12 13 13 13 14 13 11 11 10 8 9 11 11 9 11 16 17 17 18 20 22 21 19 21 21 19 19 18 13 9 10 16 18 16 15 18 19 19 21 19 19 20
12 12 12 13 13 14 14 14 13 11 11 13 14 12 12 16 17 17 18 17 14 16 17 16 16 17 18 17 11 10 13 17 15 14 17 17 14 18 19 21 20 20 20
10 10 11 12 13 12 13 13 12 13 12 15 16 16 17 20 21 20 21 19 17 15 13 14 15 15 15 15 16 17 17 17 17 17 16 16 15 15 18 17 19 20 21
8 9 11 12 13 13 13 13 13 12 12 13 16 17 22 25 23 22 22 17 17 17 16 16 17 19 17 21 21 19 18 18 17 15 16 17 16 16 18 17 18 20 23
9 9 9 11 12 13 14 14 13 13 12 12 13 15 18 22 20 18 17 16 16 16 17 19 19 23 26 23 21 22 22 21 20 17 16 17 19 19 19 18 18 20 22
12 10 8 8 11 12 13 13 13 11 11 11 12 14 18 15 15 15 15 16 17 17 19 20 21 22 23 24 25 26 23 21 21 20 21 20 19 21 21 22 22 20 21
13 10 7 7 8 9 9 10 11 10 10 10 11 12 17 14 16 17 17 17 18 19 20 23 25 24 24 25 29 28 21 20 19 19 22 24 24 24 25 24 25 24 23
14 11 8 5 6 7 8 9 10 10 10 10 10 12 15 16 17 18 20 20 21 22 23 24 26 26 27 27 28 30 29 25 26 27 29 30 30 29 28 29 27 26 25
16 12 8 5 3 6 7 8 9 11 13 12 13 15 17 18 19 21 22 21 23 24 27 28 28 28 29 28 31 33 32 31 32 33 33 34 35 34 34 32 30 28 29
19 14 10 7 3 2 5 6 8 10 12 11 15 17 20 23 24 24 27 27 28 27 30 31 31 32 32 33 33 34 34 35 37 36 36 36 38 37 35 33 33 33 32
22 18 14 9 6 3 3 5 7 10 12 15 19 21 23 24 27 26 26 26 27 29 29 30 30 30 31 32 32 33 34 35 35 35 34 36 37 36 33 34 34 33 33
Wind_Direction
221 222 229 233 239 249 250 267 288 249 251 237 240 246 242 243 242 239 235 241 250 264 261 264 267 269 265 275 273 278 289 281 269 303 297 313 320 326 326 323 324 334 347
229 215 217 231 240 241 252 270 278 285 287 300 274 267 253 242 243 245 241 244 249 259 266 263 266 259 271 275 272 269 275 272 271 283 300 317 328 336 333 323 325 328 335
116 169 176 207 222 227 230 243 263 273 273 280 292 262 262 249 246 243 244 247 251 258 265 262 272 277 271 276 271 272 273 268 265 270 293 310 320 333 334 332 334 334 339
179 119 83 113 112 107 137 201 236 274 266 261 265 274 268 255 253 249 247 249 256 258 261 265 271 276 275 276 277 280 278 278 277 282 291 299 308 318 321 325 334 341 342
197 203 25 111 238 272 225 190 147 288 304 265 255 257 268 261 260 263 252 258 261 261 266 265 270 276 282 280 284 287 282 282 291 292 288 290 302 311 317 321 322 327 329
187 177 332 324 257 256 257 21 243 219 296 333 272 268 256 257 263 267 269 267 272 263 272 271 275 280 279 284 284 284 284 284 285 285 285 288 297 304 314 315 315 318 318
93 101 137 61 118 117 347 302 245 14 289 359 57 16 338 283 267 264 263 265 270 269 272 277 279 277 280 282 284 284 283 283 284 284 282 283 284 294 304 304 307 307 295
81 81 82 79 75 83 89 88 88 54 10 350 353 25 10 352 343 300 267 259 259 265 269 273 274 275 274 273 274 279 281 281 279 277 279 280 285 294 296 297 297 295 296
68 67 67 66 64 71 72 65 67 57 37 56 41 61 50 32 18 355 334 303 284 281 286 284 282 280 280 284 284 279 277 275 277 279 280 284 287 289 291 292 287 286 291
61 60 65 60 54 50 36 46 54 59 75 98 91 78 64 45 33 22 37 39 36 8 350 329 316 304 290 281 272 273 277 279 282 280 279 279 281 284 285 280 282 270 276
84 77 71 69 67 67 74 70 70 75 78 71 72 78 74 56 46 43 40 34 22 31 27 8 358 347 338 325 312 291 278 279 277 277 278 279 282 284 287 289 287 277 264
90 91 82 75 73 72 75 78 77 78 72 65 67 63 55 49 40 36 32 25 10 8 21 358 347 346 333 328 329 328 321 306 296 285 282 286 292 292 295 293 294 292 282
90 89 89 88 80 70 67 70 69 64 56 44 41 39 36 25 22 20 18 17 12 6 358 339 336 337 332 328 322 316 312 308 309 299 300 301 302 301 302 300 297 293 289
89 83 79 77 75 76 72 62 51 44 48 47 38 26 17 9 4 1 359 357 356 351 344 342 339 332 328 326 330 331 326 321 313 311 312 313 313 308 304 306 301 301 292
94 85 78 70 64 65 65 65 63 56 48 50 34 24 18 18 3 348 345 340 338 339 338 335 336 337 336 333 325 329 330 333 339 334 323 318 320 321 318 313 300 298 283
94 79 72 74 68 62 62 75 66 70 75 49 43 32 23 358 344 344 334 329 318 315 323 332 331 334 336 332 323 319 327 317 317 319 320 322 319 318 318 314 317 312 297
87 90 84 71 62 58 53 45 35 44 49 35 34 35 16 357 357 358 350 347 349 345 345 339 335 332 328 327 323 308 310 314 320 319 318 320 324 320 321 321 317 318 313
96 90 79 74 66 59 53 46 37 30 21 13 20 19 7 1 3 4 0 352 354 354 348 335 329 336 334 324 315 305 308 316 319 319 318 315 319 320 320 319 316 317 318
112 97 85 75 67 65 57 51 44 34 23 12 8 9 4 3 6 6 8 7 352 345 339 331 326 324 313 317 316 312 314 316 318 319 317 314 312 314 310 312 313 311 311
128 110 91 70 59 52 44 40 34 29 23 16 11 3 358 357 1 358 355 349 343 335 330 325 321 317 305 314 309 308 308 305 306 306 304 305 305 304 299 301 305 307 309
154 138 109 79 59 49 44 40 31 27 19 9 1 358 358 354 351 349 346 341 335 328 320 314 311 314 312 312 311 296 292 295 298 299 299 299 298 293 292 292 292 292 295
167 155 130 91 68 55 45 35 25 21 13 3 354 353 0 357 350 345 341 335 330 323 321 318 314 308 306 304 303 298 293 300 300 301 300 299 297 293 290 287 285 285 287
176 167 151 112 64 44 35 30 28 19 7 3 358 355 356 352 346 338 333 330 328 327 324 320 313 307 305 305 304 291 282 289 293 294 295 296 291 288 284 283 281 282 280
185 177 169 155 75 31 20 13 6 1 358 355 352 349 347 342 337 333 327 323 325 325 326 323 318 314 310 307 299 294 294 291 290 287 284 284 280 277 275 273 274 275 279
196 191 188 185 179 21 9 355 348 348 351 346 345 342 337 337 335 332 331 326 328 326 327 326 322 317 312 308 304 299 294 292 290 287 283 279 274 273 270 268 270 273 275
203 204 204 205 211 244 314 335 342 348 353 347 344 339 336 337 331 327 327 326 325 323 324 325 324 322 318 313 310 307 302 297 292 289 285 282 277 272 267 264 266 266 268